#timestamp,LO_Frequency,Hit,StdDev 
1505210415.3,286046999.9,N,1.2
1505210435.2,286046999.8,N,1.2
1505210455.9,286047002.7,N,1.2
1505210475.7,286047002.3,N,1.2
1505210495.6,286047001.8,N,1.2
1505210515.4,286047004.3,Y,0.0
1505210535.3,286047002.2,P,0.6
1505210555.1,286047002.2,P,0.6
1505210556.0,286047002.2,P,0.6
1505210575.8,286047001.5,N,0.5
1505210595.7,286047001.5,N,0.5
1505210615.5,286047002.4,Y,0.0
1505210635.4,286047000.3,P,0.7
1505210655.2,286047000.3,N,0.7
1505210675.0,286046998.1,N,1.3
1505210675.9,286046998.1,N,1.4
1505210695.8,286046998.6,N,1.4
1505210715.6,286046998.4,N,1.3
1505210735.5,286046998.5,N,1.3
1505210755.3,286046998.8,N,1.2
1505210775.1,286046999.0,N,1.1
1505210795.9,286046998.7,N,1.1
1505210815.7,286046998.5,N,1.1
1505210835.6,286047000.6,N,1.1
1505210855.4,286047000.9,N,1.1
1505210875.2,286047000.6,N,1.2
1505210895.1,286046998.8,N,1.1
1505210896.0,286046998.8,N,1.1
1505210915.8,286046999.1,N,1.1
1505210935.7,286046996.6,Y,0.0
1505210955.5,286047001.2,P,0.9
1505210975.3,286047000.8,N,0.8
1505210995.2,286046998.1,N,1.2
1505211015.0,286047001.1,N,1.2
1505211015.9,286047001.1,N,1.2
1505211035.8,286047000.8,N,1.1
1505211055.6,286047000.9,N,1.0
1505211075.4,286046999.7,N,1.0
1505211095.3,286047002.4,N,1.1
1505211115.1,286046999.7,N,1.1
1505211135.9,286046999.8,N,1.1
1505211155.7,286047001.1,N,1.1
1505211175.5,286047001.2,N,1.0
1505211195.4,286047001.1,N,1.0
1505211215.2,286046998.3,N,1.1
1505211235.1,286047000.4,N,1.1
1505211236.0,286047000.4,N,1.1
1505211255.8,286047000.7,N,1.0
1505211275.6,286047000.9,N,1.0
1505211295.5,286047000.9,N,1.0
1505211315.3,286047000.6,N,1.0
1505211335.2,286047001.1,N,1.0
1505211355.9,286047002.8,N,1.0
1505211375.7,286046999.8,N,1.0
1505211395.6,286047001.3,N,1.0
1505211415.4,286047001.6,N,1.0
1505211435.3,286046999.7,N,1.0
1505211455.1,286046999.9,N,1.0
1505211456.0,286046999.9,N,1.0
1505211475.8,286046999.7,N,1.0
1505211495.7,286047002.7,N,1.0
1505211515.5,286047000.1,N,1.1
1505211535.4,286047002.4,N,1.0
1505211555.2,286046999.7,N,1.0
1505211575.0,286047002.3,N,1.0
1505211575.9,286047002.3,N,1.1
1505211595.8,286047002.7,N,1.1
1505211615.6,286047002.0,N,1.1
1505211635.5,286047001.9,N,1.1
1505211655.3,286047001.8,N,1.1
1505211675.1,286047002.2,N,1.1
1505211695.9,286047002.6,N,1.1
1505211715.7,286047001.8,N,1.1
1505211735.6,286047002.7,N,1.2
1505211755.4,286047002.2,N,1.1
1505211775.2,286047001.5,N,1.1
1505211795.1,286047001.7,N,1.0
1505211796.0,286047001.7,N,1.0
1505211815.8,286047001.7,N,1.0
1505211835.7,286047004.4,Y,0.0
1505211855.5,286046999.7,P,0.9
1505211875.3,286047002.7,P,1.2
1505211895.2,286046999.7,N,1.3
1505211915.0,286046999.8,N,1.2
1505211915.9,286046999.8,N,1.2
1505211935.8,286047000.5,N,1.1
1505211955.6,286047001.2,N,1.0
1505211975.4,286047000.6,N,1.0
1505211995.3,286047000.4,N,0.9
1505212015.1,286047000.3,N,0.9
1505212035.9,286046999.7,N,0.9
1505212055.7,286047000.2,N,0.8
1505212075.5,286047001.2,N,0.8
1505212095.4,286047001.0,N,0.8
1505212115.2,286047000.4,N,0.8
1505212135.1,286047000.1,N,0.8
1505212136.0,286047000.1,N,0.8
1505212155.8,286047000.2,N,0.7
1505212175.6,286046999.9,N,0.7
1505212195.5,286047000.6,N,0.7
1505212215.3,286047000.9,N,0.7
1505212235.2,286047000.1,N,0.7
1505212255.9,286047000.5,N,0.7
1505212275.7,286047000.3,N,0.7
1505212295.6,286046999.8,N,0.7
1505212315.4,286047000.3,N,0.7
1505212335.3,286047000.7,N,0.6
1505212355.1,286047000.9,N,0.6
1505212356.0,286047000.9,N,0.6
1505212375.8,286047000.4,N,0.6
1505212395.7,286047002.8,Y,0.0
1505212415.5,286047000.1,P,0.2
1505212435.4,286046999.7,N,0.3
1505212455.2,286046999.9,N,0.3
1505212475.0,286046999.7,N,0.3
1505212475.9,286046999.7,N,0.3
1505212495.8,286047000.1,N,0.3
1505212515.6,286047000.5,N,0.3
1505212535.5,286047000.7,N,0.4
1505212555.3,286047002.3,Y,0.0
1505212575.1,286047000.3,P,0.1
1505212595.9,286047000.2,N,0.1
1505212615.7,286047000.2,N,0.1
1505212635.6,286047000.1,N,0.1
1505212655.4,286047002.7,Y,0.0
1505212675.2,286047002.4,P,1.1
1505212695.1,286047000.9,N,0.9
1505212696.0,286047000.9,N,0.8
1505212715.8,286047000.7,N,0.7
1505212735.7,286047001.1,N,0.7
1505212755.5,286046998.2,N,1.2
1505212775.3,286047000.9,N,1.1
1505212795.2,286047000.2,N,1.0
1505212815.0,286047002.8,N,1.2
1505212815.9,286047002.8,N,1.3
1505212835.8,286047002.8,N,1.3
1505212855.6,286046999.9,N,1.3
1505212875.4,286047000.9,N,1.3
1505212895.3,286047001.2,N,1.2
1505212915.1,286047000.3,N,1.2
1505212935.9,286047001.2,N,1.2
1505212955.7,286046998.2,N,1.3
1505212975.5,286046998.5,N,1.4
1505212995.4,286046999.7,N,1.4
1505213015.2,286047002.4,N,1.4
1505213035.1,286047002.4,N,1.4
1505213036.0,286047002.4,N,1.4
1505213055.8,286046999.9,N,1.4
1505213075.6,286047000.5,N,1.3
1505213095.5,286047000.1,N,1.3
1505213115.3,286047000.1,N,1.3
1505213135.2,286047002.7,N,1.3
1505213155.9,286047002.5,N,1.3
1505213175.7,286047002.1,N,1.3
1505213195.6,286047000.1,N,1.3
1505213215.4,286047002.3,N,1.3
1505213235.3,286047002.2,N,1.4
1505213255.1,286047000.2,N,1.4
1505213256.0,286047000.2,N,1.4
1505213275.8,286046999.9,N,1.4
1505213295.7,286046999.8,N,1.3
1505213315.5,286047000.2,N,1.3
1505213335.3,286046999.8,N,1.3
1505213355.2,286047000.6,N,1.3
1505213375.0,286047001.1,N,1.2
1505213375.9,286047001.1,N,1.2
1505213395.8,286047000.1,N,1.2
1505213415.6,286047000.0,N,1.2
1505213435.5,286046999.7,N,1.2
1505213455.3,286047000.5,N,1.2
1505213475.1,286047000.1,N,1.2
1505213495.9,286047002.2,N,1.1
1505213515.7,286047001.6,N,1.1
1505213535.5,286047001.6,N,1.0
1505213555.4,286047003.9,Y,0.0
1505213575.2,286047004.2,P,1.6
1505213595.1,286047003.9,N,1.5
1505213596.0,286047003.9,N,1.3
1505213615.8,286047004.1,Y,0.0
1505213635.7,286047000.7,P,1.3
1505213655.5,286046998.2,N,2.1
1505213675.3,286047000.8,N,1.8
1505213695.2,286046998.9,N,1.8
1505213715.0,286046996.5,N,2.2
1505213715.9,286046996.5,N,2.3
1505213735.8,286046998.9,N,2.1
1505213755.6,286046999.5,N,2.0
1505213775.4,286046999.3,N,1.9
1505213795.3,286046998.9,N,1.8
1505213815.1,286046999.4,N,1.8
1505213835.9,286046999.6,N,1.7
1505213855.7,286046996.7,N,1.8
1505213875.5,286046997.3,N,1.8
1505213895.4,286046998.0,N,1.7
1505213915.2,286046995.9,N,1.8
1505213935.1,286046993.4,Y,0.0
1505213936.0,286046993.4,P,2.7
1505213955.8,286046995.3,N,2.2
1505213975.6,286046995.5,N,1.9
1505213995.5,286046995.1,N,1.7
